Location: Borovka
(49.7741°N, 14.5280°E)
Time: 07:17:26
(UTC+00:00)

MOZHAYETS 4 - Visible Passes

Search period start: 11 March 2026 00:00
Search period end: 21 March 2026 00:00
Orbit: 643 x 658 km, 98.3° (Epoch: 10 March)

Date Brightness Start Highest point End Pass type
(mag) Time Alt. Az. Time Alt. Az. Time Alt. Az.
11 Mar 8.5 03:24:46 10° SSE 03:29:11 54° ENE 03:33:37 10° N visible
11 Mar 10.5 18:26:00 10° NNW 18:29:18 20° WNW 18:32:34 10° WSW visible
12 Mar 10.7 02:17:15 10° E 02:19:48 15° NE 02:22:19 10° NNE visible
12 Mar 7.6 03:51:18 10° SSE 03:55:50 87° WSW 04:00:24 10° NNW visible
12 Mar 10.9 18:53:42 10° NNW 18:55:40 13° NW 18:57:38 10° W visible
13 Mar 10.1 02:42:36 10° ESE 02:46:11 24° ENE 02:49:47 10° N visible
13 Mar 7.9 04:18:12 10° S 04:22:36 49° W 04:27:01 10° NNW visible
13 Mar 9.0 17:42:02 10° N 17:46:21 45° WNW 17:50:37 10° SW visible
14 Mar 9.2 03:08:30 10° SE 03:12:41 38° ENE 03:16:52 10° N visible
14 Mar 8.5 04:45:32 10° SSW 04:49:27 28° W 04:53:23 10° NW visible
14 Mar 10.0 18:09:04 10° N 18:12:52 27° WNW 18:16:38 10° WSW visible
15 Mar 11.1 02:02:15 10° ENE 02:03:26 11° NE 02:04:38 10° NE visible
15 Mar 8.1 03:34:47 10° SSE 03:39:16 66° ENE 03:43:46 10° N visible
15 Mar 10.7 18:36:22 10° NNW 18:39:17 17° WNW 18:42:11 10° W visible
16 Mar 10.5 02:26:48 10° E 02:29:46 18° ENE 02:32:45 10° NNE visible
16 Mar 7.6 04:01:26 10° S 04:05:56 72° WSW 04:10:29 10° NNW visible
16 Mar 11.1 19:04:35 10° NW 19:05:36 11° NW 19:06:37 10° WNW visible
17 Mar 9.8 02:52:21 10° ESE 02:56:11 28° ENE 03:00:02 10° N visible
17 Mar 8.1 04:28:27 10° SSW 04:32:43 40° W 04:37:00 10° NNW visible
17 Mar 9.4 17:52:12 10° N 17:56:22 38° WNW 18:00:28 10° SW visible
18 Mar 8.8 03:18:22 10° SE 03:22:42 46° ENE 03:27:02 10° N visible
18 Mar 10.3 18:19:18 10° N 18:22:50 23° WNW 18:26:20 10° WSW visible
19 Mar 10.9 02:11:18 10° E 02:13:21 13° NE 02:15:23 10° NNE visible
19 Mar 7.8 03:44:46 10° SSE 03:49:17 80° ENE 03:53:50 10° NNW visible
19 Mar 10.8 18:46:45 10° NNW 18:49:12 15° NW 18:51:38 10° W visible
20 Mar 10.4 02:36:22 10° ESE 02:39:42 21° ENE 02:43:01 10° NNE visible
20 Mar 7.7 04:11:32 10° S 04:15:59 58° WSW 04:20:28 10° NNW visible
